Location: Trigueros del Valle
(41.8305°N, 4.6518°W)
Time: 03:24:14
(UTC+00:00)

Daily predictions for brighter satellites

Satellite Brightness Start Highest point End
(mag) Time Altitude Azimuth Time Altitude Azimuth Time Altitude Azimuth
Cosmos 1833 Rocket 4.2 03:33:50 31° ESE 03:34:00 31° ESE 03:38:55 10° NE
NOSS 3-2 (C) 4.3 03:43:22 41° NNE 03:43:22 41° NNE 03:47:31 10° NE
CENTAUR R/B 3.1 03:50:12 51° NNE 03:50:12 51° NNE 03:55:26 10° NNE
Cosmos 1656 4.3 03:55:16 52° ESE 03:55:16 52° ESE 03:59:48 10° SE
Cosmos 2082 Rocket 4.1 03:52:22 10° SSE 03:56:58 27° ESE 04:01:35 10° NE
ISS -0.6 04:09:06 14° ENE 04:09:06 14° ENE 04:09:37 10° ENE
CZ-2C R/B 2.9 04:04:37 10° NNE 04:08:51 55° ENE 04:08:51 55° ENE
Lacrosse 4 Rocket 3.7 04:18:22 16° NNE 04:18:22 16° NNE 04:19:15 10° NNE
Cosmos 1697 Rocket 3.3 04:16:50 21° N 04:20:29 55° ENE 04:26:01 10° SE
COSMOS 2406 3.1 04:21:37 79° NNW 04:21:37 79° NNW 04:27:05 10° NNE
DELTA 2 R/B (1) 4.5 04:24:26 35° S 04:24:26 35° S 04:28:32 10° SE
Lacrosse 5 rocket 3.0 04:25:46 25° NE 04:25:46 25° NE 04:27:29 10° NE
USA 238 DEB 4.4 04:28:30 34° NNW 04:28:30 34° NNW 04:34:21 10° NNE
USA 238 4.4 04:28:35 34° NNW 04:28:35 34° NNW 04:34:28 10° NNE
PAYLOAD A 4.0 04:31:00 10° N 04:35:51 65° NW 04:35:51 65° NW
ATLAS 3B R/B 2.7 04:32:59 28° SSW 04:36:41 76° ESE 04:43:19 10° NE
ERS-2 2.8 04:35:03 10° SSE 04:38:35 52° ENE 04:39:17 44° NNE
Cosmos 1302 Rocket 4.0 04:43:07 59° WSW 04:43:07 59° WSW 04:48:04 10° S
Abrixas rocket 4.2 04:43:59 23° ENE 04:43:59 23° ENE 04:45:30 10° E
Cosmos 1980 Rocket 3.2 04:37:51 10° NNW 04:43:14 45° ENE 04:48:33 10° SE
USA 234 4.5 04:39:33 10° NE 04:44:46 26° NNW 04:46:42 23° NW
Cosmos 2228 3.6 04:41:35 10° N 04:45:55 59° E 04:50:14 10° SSE
Geosat 4.3 04:41:25 10° SE 04:46:23 67° ENE 04:51:09 11° NNW
ADEOS Rocket 2.7 04:41:07 10° S 04:46:31 61° W 04:52:02 10° NNW
Nadezhda 4 Rocket 3.8 04:43:03 10° S 04:49:09 80° W 04:55:19 10° N
Cosmos 2344 4.2 04:47:42 31° WNW 04:49:12 34° NW 04:56:31 10° NNE
CZ-3 R/B 3.9 04:35:59 23° WSW 04:51:55 46° S 05:00:09 10° ESE
ADEOS 3.7 04:47:27 10° NNE 04:52:42 73° ESE 04:57:54 10° S
Cosmos 44 Rocket 3.7 04:53:07 45° SW 04:53:07 45° SW 04:57:44 10° S
Cosmos 1606 Rocket 3.7 04:52:10 10° N 04:56:39 74° E 05:01:07 10° SSE
Cosmos 1400 Rocket 3.9 04:53:24 10° N 04:57:11 43° ENE 05:00:53 10° SSE
SJ-6F 4.2 04:54:10 10° N 04:58:16 77° WNW 05:01:08 19° SSW
Cosmos 2360 4.1 04:55:31 10° NNW 05:01:15 89° WSW 05:06:55 10° SSE
TELKOM 3 4.2 05:01:47 49° N 05:01:47 49° N 05:05:02 10° NE
COSMO-SKYMED 1 3.9 05:00:50 10° SE 05:04:54 41° ENE 05:08:59 10° N
H-2A R/B 4.4 05:01:52 10° SSW 05:02:03 11° SSW 05:02:03 11° SSW
CZ-4B R/B 1.3 05:04:04 10° SSE 05:07:31 86° WSW 05:10:16 15° NNW
Cosmos 1300 2.6 05:06:59 10° N 05:10:49 87° E 05:14:37 10° S
ARGOS Delta rocket 4.5 05:06:19 10° NNE 05:11:45 70° E 05:17:13 10° S
Cosmos 220 Rocket 3.9 05:09:17 17° NNW 05:12:43 68° WSW 05:17:05 10° S
Cosmos 2278 3.7 05:08:06 10° NNW 05:13:48 81° ENE 05:19:26 10° SSE
Cosmos 1626 2.5 05:14:34 40° WNW 05:14:34 40° WNW 05:17:39 10° N
SL-14 R/B 3.3 05:10:23 10° SSW 05:14:16 56° W 05:18:15 10° N
Cosmos 1689 Rocket 3.6 05:11:33 10° SE 05:14:17 36° ENE 05:17:01 10° N
ALOS 2.1 05:09:41 10° N 05:14:22 73° WNW 05:19:00 10° SSW
Cosmos 2322 Rocket 4.5 05:10:33 10° N 05:14:51 21° NE 05:19:06 10° E
Cosmos 1833 Rocket 3.2 05:15:37 28° WSW 05:17:47 38° WNW 05:23:03 10° N
Cosmos 1992 Rocket 3.9 05:16:07 10° NNW 05:21:17 68° WSW 05:26:27 10° S
Cosmos 2084 3.4 05:18:51 16° SW 05:22:17 84° NW 05:26:42 10° NE
deb Chang Zheng 4 3.4 05:20:09 10° N 05:24:22 63° WNW 05:28:34 10° SSW
Intercosmos 24 3.9 05:21:38 10° NNW 05:25:10 43° W 05:28:35 10° SSW
BREEZE-M DEB (TANK) 2.8 05:25:58 24° SW 05:25:58 24° SW 05:27:44 10° SSE
METEOR-M 4.0 05:22:05 10° N 05:27:25 72° WNW 05:32:42 10° SSW
Elektron 1 4.1 05:27:38 32° W 05:28:37 45° NW 05:31:24 10° NNE
Okean 1-7 Rocket 3.7 05:24:28 10° S 05:29:00 84° E 05:33:33 10° N
SJ-12 3.9 05:25:59 10° NNE 05:30:06 86° ESE 05:34:12 10° SSW
Cosmos 2058 Rocket 3.1 05:26:40 10° N 05:31:11 85° E 05:35:38 10° S
SL-19 R/B 3.4 05:28:42 10° N 05:31:30 63° WNW 05:34:23 10° SSW
Cosmos 1484 Rocket 3.2 05:30:03 10° N 05:33:37 37° WNW 05:37:07 10° SW
Cosmos 1428 Rocket 4.4 05:27:32 10° S 05:33:47 81° W 05:40:01 10° N
Cosmos 1461 4.0 05:34:16 22° W 05:36:14 31° NW 05:40:26 10° NNE
Meteor 1-24 Rocket 3.9 05:31:44 10° SSW 05:37:11 52° WNW 05:42:53 10° N
Cosmos 2369 4.1 05:32:16 10° NW 05:37:34 41° WSW 05:42:48 10° S
Cosmos 1892 Rocket 3.6 05:33:21 10° SSW 05:37:35 54° W 05:41:54 10° N
Cosmos 1553 Rocket 4.4 05:32:30 10° N 05:38:36 66° E 05:44:36 10° SSE
USA 290 3.2 05:39:33 24° W 05:40:11 26° WNW 05:42:59 10° N
CENTAUR R/B 4.0 05:37:24 16° WNW 05:40:32 22° NNW 05:45:58 10° NNE
Cosmos 2082 Rocket 2.5 05:35:28 10° SW 05:40:47 43° WNW 05:46:09 10° NNE
CREW DRAGON DEMO-1 DEB 4.4 05:40:30 14° NNW 05:42:37 28° NNE 05:45:17 10° E
Meteor PRIRODA 3.6 05:39:01 10° NNE 05:42:41 89° ESE 05:46:21 10° SSW
Cosmos 614 Rocket 3.9 05:37:36 10° SSW 05:42:45 83° WNW 05:47:54 10° NNE
ISS -2.2 05:42:03 18° NW 05:43:22 22° NNW 05:46:06 10° NE
Cosmos 2026 Rocket 4.0 05:39:55 10° SSW 05:46:13 63° W 05:52:33 10° N
CZ-2C R/B 3.9 05:44:11 10° NNW 05:47:12 16° WNW 05:48:13 15° WNW
Cosmos 2251 Rocket 4.1 05:45:30 10° SW 05:50:28 37° WNW 05:55:26 10° N
SL-16 R/B 3.3 05:45:56 10° NNW 05:51:26 47° ENE 05:56:51 10° SE
SKYMED 2 3.6 05:48:38 10° S 05:52:54 58° W 05:57:12 10° NNW
PSLV R/B 4.0 05:50:39 10° S 05:54:48 64° WSW 05:59:01 10° NNW
[s.n.46727] 4.3 05:56:29 15° WNW 05:57:45 19° NNW 05:59:51 10° NNE
[s.n.46723] 4.3 05:56:30 15° WNW 05:57:50 20° NNW 06:00:00 10° NNE
[s.n.46707] 4.3 05:56:40 15° WNW 05:57:56 19° NNW 06:00:01 10° NNE
[s.n.46708] 4.3 05:56:45 15° WNW 05:58:01 19° NNW 06:00:07 10° NNE
[s.n.46719] 4.3 05:56:50 14° WNW 05:58:07 19° NNW 06:00:12 10° NNE
[s.n.46724] 4.3 05:56:55 14° WNW 05:58:13 19° NNW 06:00:17 10° NNE
[s.n.46687] 4.3 05:57:01 14° WNW 05:58:18 19° NNW 06:00:22 10° NNE
Meteor 1-31 Rocket 3.7 05:54:56 10° N 05:58:19 28° WNW 06:01:41 10° SW
[s.n.46696] 4.3 05:57:06 14° WNW 05:58:23 19° NNW 06:00:29 10° NNE
[s.n.46720] 4.3 05:57:11 14° WNW 05:58:29 19° NNW 06:00:34 10° NNE
[s.n.46676] 4.3 05:57:16 14° WNW 05:58:34 19° NNW 06:00:39 10° NNE
[s.n.46721] 4.3 05:57:22 14° WNW 05:58:40 19° NNW 06:00:45 10° NNE
[s.n.46728] 4.3 05:57:26 14° WNW 05:58:45 19° NNW 06:00:50 10° NNE
[s.n.46690] 4.3 05:57:32 14° WNW 05:58:51 19° NNW 06:00:55 10° NNE
[s.n.46694] 4.3 05:57:36 14° WNW 05:58:54 19° NNW 06:00:59 10° NNE
Cosmos 1455 2.8 05:55:11 10° N 05:59:02 60° E 06:02:51 10° SSE
[s.n.46702] 4.3 05:57:43 14° WNW 05:59:02 19° NNW 06:01:06 10° NNE
[s.n.46679] 4.3 05:57:46 14° WNW 05:59:06 19° NNW 06:01:11 10° NNE
[s.n.46704] 4.3 05:57:47 14° WNW 05:59:11 19° NNW 06:01:18 10° NNE
[s.n.46712] 4.3 05:57:54 14° WNW 05:59:14 19° NNW 06:01:19 10° NNE
[s.n.46711] 4.3 05:58:03 14° WNW 05:59:23 19° NNW 06:01:27 10° NNE
[s.n.46684] 4.3 05:58:05 14° WNW 05:59:25 19° NNW 06:01:29 10° NNE
[s.n.46706] 4.3 05:58:13 14° WNW 05:59:34 19° NNW 06:01:37 10° NNE
[s.n.46678] 4.3 05:58:11 14° WNW 05:59:35 19° NNW 06:01:44 10° NNE
[s.n.46677] 4.3 05:58:21 14° WNW 05:59:42 19° NNW 06:01:45 10° NNE
[s.n.46671] 4.3 05:58:26 14° WNW 05:59:47 19° NNW 06:01:51 10° NNE
[s.n.46675] 4.3 05:58:31 14° WNW 05:59:53 19° NNW 06:01:57 10° NNE
[s.n.46674] 4.3 05:58:37 14° WNW 05:59:58 19° NNW 06:02:02 10° NNE
[s.n.46698] 4.3 05:58:42 14° WNW 06:00:05 19° NNW 06:02:08 10° NNE
[s.n.46699] 4.4 05:58:43 14° WNW 06:00:09 19° NNW 06:02:16 10° NNE
[s.n.46715] 4.4 05:58:53 14° WNW 06:00:15 18° NNW 06:02:19 10° NNE
[s.n.46714] 4.4 05:58:58 14° WNW 06:00:21 18° NNW 06:02:24 10° NNE
[s.n.46726] 4.4 05:59:03 14° WNW 06:00:26 18° NNW 06:02:29 10° NNE
[s.n.46703] 4.4 05:59:08 14° WNW 06:00:31 18° NNW 06:02:34 10° NNE
[s.n.46713] 4.4 05:59:14 14° WNW 06:00:37 18° NNW 06:02:41 10° NNE
[s.n.46717] 4.4 05:59:19 13° WNW 06:00:43 18° NNW 06:02:46 10° NNE
[s.n.46691] 4.4 05:59:20 13° WNW 06:00:47 19° NNW 06:02:54 10° NNE
[s.n.46693] 4.4 05:59:30 13° WNW 06:00:54 18° NNW 06:02:57 10° NNE
[s.n.46672] 4.4 05:59:35 13° WNW 06:01:00 18° NNW 06:03:02 10° NNE
[s.n.46701] 4.4 05:59:40 13° WNW 06:01:05 18° NNW 06:03:08 10° NNE
[s.n.46685] 4.4 05:59:46 13° WNW 06:01:11 18° NNW 06:03:13 10° NNE
[s.n.46709] 4.4 05:59:51 13° WNW 06:01:16 18° NNW 06:03:19 10° NNE
[s.n.46683] 4.4 05:59:55 13° WNW 06:01:20 18° NNW 06:03:23 10° NNE
[s.n.46695] 4.4 06:00:01 13° WNW 06:01:26 18° NNW 06:03:29 10° NNE
Cosmos 1626 Rocket 3.6 05:57:06 10° S 06:01:33 90° S 06:06:03 10° N
[s.n.46688] 4.4 06:00:07 13° WNW 06:01:33 18° NNW 06:03:36 10° NNE
[s.n.46729] 4.4 06:00:11 13° WNW 06:01:37 18° NNW 06:03:40 10° NNE
[s.n.46697] 4.4 06:00:14 13° WNW 06:01:41 18° NNW 06:03:43 10° NNE
[s.n.46725] 4.4 06:00:19 13° WNW 06:01:46 18° NNW 06:03:48 10° NNE
[s.n.46682] 4.4 06:00:24 13° WNW 06:01:51 18° NNW 06:03:53 10° NNE
[s.n.46680] 4.4 06:00:30 13° WNW 06:01:57 18° NNW 06:03:59 10° NNE
[s.n.46718] 4.4 06:00:35 13° WNW 06:02:03 18° NNW 06:04:05 10° NNE
[s.n.46710] 4.4 06:00:40 13° WNW 06:02:09 18° NNW 06:04:10 10° NNE
[s.n.46673] 4.4 06:00:51 13° WNW 06:02:19 18° NNW 06:04:21 10° NNE
[s.n.46700] 4.4 06:00:56 13° WNW 06:02:25 18° NNW 06:04:27 10° NNE
[s.n.46705] 4.4 06:01:02 13° WNW 06:02:31 18° NNW 06:04:32 10° NNE
[s.n.46692] 4.4 06:01:07 13° WNW 06:02:37 18° NNW 06:04:38 10° NNE
[s.n.46686] 4.4 06:01:13 13° WNW 06:02:42 18° NNW 06:04:43 10° NNE
[s.n.46716] 4.4 06:01:18 13° WNW 06:02:48 18° NNW 06:04:49 10° NNE
[s.n.46722] 4.4 06:01:23 13° WNW 06:02:53 18° NNW 06:04:54 10° NNE
[s.n.46689] 4.4 06:01:29 13° WNW 06:02:59 18° NNW 06:05:00 10° NNE
[s.n.46681] 4.4 06:01:34 13° WNW 06:03:05 18° NNW 06:05:05 10° NNE
Meteor 2-1 Rocket 4.4 05:57:39 10° N 06:03:22 85° E 06:09:10 10° S
YAOGAN 6 4.2 05:59:53 10° NNE 06:03:24 41° E 06:06:52 10° S
Lacrosse 5 rocket 3.1 06:01:25 10° WNW 06:03:30 15° NNW 06:05:45 10° NNE
CZ-4B R/B 3.2 05:59:58 10° N 06:03:52 45° WNW 06:07:56 10° SW
Cosmos 1697 Rocket 3.9 05:59:51 10° NW 06:03:58 21° W 06:08:06 10° SSW
Spot 2 4.4 05:59:35 10° NNE 06:04:11 83° ESE 06:09:03 10° SSW
Cosmos 1602 Rocket 3.9 06:00:12 10° S 06:04:36 72° E 06:09:04 10° NNE
Cosmos 1703 4.2 06:02:53 10° S 06:06:38 53° E 06:10:27 10° NNE
Okean O Rocket 3.7 06:05:21 10° NNE 06:09:18 33° E 06:13:15 10° SSE
Cosmos 1190 Rocket 4.1 06:04:58 10° SSW 06:10:14 89° ESE 06:15:29 10° NNE
Gblst 52 Del rocket 4.4 06:08:03 10° SW 06:13:44 88° SE 06:20:09 10° NE
Cosmos 1812 Rocket 3.9 06:10:11 10° N 06:14:30 69° E 06:18:49 10° SSE
PSLV R/B 3.9 06:11:07 10° N 06:15:14 78° WNW 06:19:20 10° SSW
Cosmos 2360 Rocket 3.9 06:10:36 10° N 06:15:40 33° ENE 06:20:42 10° ESE
Abrixas rocket 2.3 06:15:23 10° WNW 06:18:09 48° SSW 06:20:53 10° SE
Cosmos 2098 Rocket 3.7 06:14:52 10° SSW 06:21:01 65° W 06:25:56 10° N
